Tracking 27419 objects as of 10-Jun-2023
HD Live streaming from Space Station
objects crossing your sky now

OBJECT V

Track OBJECT V now!
10-day predictions


NORAD ID: 51843
Int'l Code: 2022-019V
Perigee: 519.4 km
Apogee: 541.6 km
Inclination: 97.5 °
Period: 95.1 minutes
Semi major axis: 6901 km
RCS: Unknown
Launch date: February 27, 2022
Source: People's Republic of China (PRC)
Launch site: Wenchang Satellite Launch Center (WSC)
Your satellite tracking list
Your tracking list is empty




NASA's NSSDC Master Catalog

Two Line Element Set (TLE):
1 51843U 22019V   23160.84097453  .00005791  00000-0  31964-3 0  9995
2 51843  97.4754 234.0644 0016097 109.6501 250.6470 15.14216534 70651
Source of the keplerian elements: AFSPC